Location: ?any Wielkie
(50.2836°N, 18.5431°E)
Time: 08:48:58
(UTC+00:00)

Daily predictions for brighter satellites

Satellite Brightness Start Highest point End
(mag) Time Altitude Azimuth Time Altitude Azimuth Time Altitude Azimuth
BREEZE-M DEB (TANK) 4.2 18:35:09 10° W 18:39:40 82° S 18:57:27 10° ESE
BREEZE-M DEB (TANK) 4.5 18:44:26 10° W 18:48:10 79° S 18:59:43 10° ESE
Ariane Rocket 3.1 18:48:03 10° SSE 18:53:06 84° WSW 18:58:13 10° NNW
S3M 4.2 18:47:18 10° SSE 18:53:29 56° E 18:59:39 10° NNE
Cosmos 1666 Rocket 4.3 18:51:17 10° N 18:55:27 38° ENE 18:59:31 10° SE
Gbstr 26 Del rocket 4.4 18:48:48 10° WSW 18:56:51 88° SSE 19:03:53 10° ENE
BREEZE-M R/B 3.0 18:56:04 10° SSW 18:58:17 23° SSE 19:00:21 10° E
Landsat 7 4.1 18:57:50 10° SSE 19:02:28 55° ENE 19:07:09 10° N
Cosmos 1782 3.9 19:01:44 10° SSE 19:05:05 26° E 19:08:28 10° NNE
USA 306 3.6 19:02:11 10° WNW 19:06:22 54° N 19:10:35 10° E
USA 245 3.8 19:05:36 10° ESE 19:07:15 18° ENE 19:08:54 10° NNE
SPOT 1/Viking Rocket 4.0 19:05:22 10° SE 19:10:22 49° ENE 19:15:22 10° N
Cosmos 1553 Rocket 4.2 19:05:23 10° SSW 19:11:32 81° W 19:17:49 10° N
USA 186 4.3 19:10:35 10° WSW 19:11:45 12° W 19:12:54 10° WNW
Cosmos 1354 Rocket 4.4 19:07:07 10° S 19:11:59 41° ESE 19:16:53 10° NE
Cosmos 2278 Rocket 3.7 19:08:52 10° SE 19:12:21 17° E 19:15:50 10° ENE
Cosmos 1602 4.0 19:11:14 10° N 19:15:01 52° ENE 19:18:49 10° SSE
Sich 1 3.1 19:10:54 10° N 19:15:16 88° WSW 19:19:37 10° S
SJ 16-02 3.4 19:15:48 10° ESE 19:16:46 11° E 19:17:44 10° E
Cosmos 2263 Rocket 4.4 19:12:41 10° WSW 19:17:35 30° NW 19:22:31 10° NNE
Cosmos 968 Rocket 3.7 19:13:40 10° SSW 19:18:55 79° WNW 19:24:10 10° NNE
Meteor 1-25 Rocket 4.4 19:14:29 10° NNW 19:20:22 88° E 19:26:14 10° S
Cosmos 1606 3.7 19:17:14 10° SSW 19:20:54 48° WNW 19:24:36 10° N
ATLAS 2AS CENTAUR R/B 4.0 19:14:00 10° NW 19:21:00 37° NNE 19:27:32 10° E
Resurs 01 Rocket 1.7 19:16:34 10° SSE 19:21:01 82° WSW 19:25:29 10° NNW
Cosmos 1844 Rocket 2.7 19:15:56 10° SSW 19:21:30 90° ESE 19:27:09 10° NNE
MetOp-B 4.2 19:16:24 10° SSE 19:21:44 74° ENE 19:27:06 10° NNW
SPOT 3 Rocket 3.6 19:19:03 10° SSE 19:24:13 86° WSW 19:29:25 10° NNW
Cosmos 1486 Rocket 4.3 19:25:40 10° SSW 19:31:00 77° WNW 19:36:23 10° NNE
CZ-4C R/B 3.1 19:24:13 10° NW 19:31:10 71° NE 19:38:37 13° SE
USA 307 3.3 19:27:56 10° WNW 19:32:11 61° NNE 19:36:26 10° E
USA 215 4.1 19:28:12 10° ENE 19:34:27 50° N 19:40:42 10° WNW
SL-4 R/B 4.3 19:32:21 10° W 19:35:18 18° SW 19:38:22 10° S
Akebono 4.4 19:35:02 10° NNW 19:37:34 49° ENE 19:38:39 23° SE
Cosmos 1151 Rocket 3.1 19:33:45 10° S 19:38:01 60° E 19:42:22 10° NNE
ATLAS 5 CENTAUR R/B 2.6 19:36:07 10° NW 19:41:34 61° SW 19:47:09 14° SSE
CREW DRAGON DEMO-1 DEB 2.6 19:39:58 10° WNW 19:42:36 72° N 19:44:34 16° E
OBJECT-B 3.9 19:42:47 10° WSW 19:43:57 11° W 19:45:07 10° WNW
Cosmos 1812 3.6 19:41:49 17° SE 19:44:05 31° E 19:47:33 10° NNE
Meteor 1-5 Rocket 4.5 19:39:24 10° N 19:44:43 51° ENE 19:48:43 17° SE
Cosmos 1844 3.9 19:39:17 10° SW 19:45:01 77° WNW 19:50:42 10° NNE
USA 308 3.2 19:41:27 10° WNW 19:45:45 66° NNE 19:49:43 12° E
Cosmos 2084 3.8 19:48:26 10° SSW 19:52:17 38° SE 19:56:13 10° ENE
Cosmos 1833 Rocket 2.8 19:47:54 10° NNW 19:53:35 68° ENE 19:57:45 18° SE
Cosmos 773 Rocket 4.1 19:49:21 10° NNW 19:54:42 84° WSW 19:58:50 17° SSE
Cosmos 1242 Rocket 3.3 19:54:40 10° SSW 19:58:10 52° WNW 20:01:40 10° N
Cosmos 1666 3.2 19:54:37 10° N 19:58:12 42° ENE 20:00:05 23° SE
Cosmos 1515 Rocket 3.9 19:56:54 18° SSE 19:59:54 47° E 20:04:08 10° NNE
Spot 2 Rocket 3.5 19:56:46 16° SSE 20:00:56 86° WSW 20:06:00 10° NNW
Meteor 1-26 Rocket 4.3 19:56:57 10° SSW 20:02:40 82° WNW 20:08:14 10° N
SPOT 5 3.1 20:01:56 19° SSE 20:05:33 71° ENE 20:10:50 10° N
Cosmos 1633 Rocket 3.7 20:02:31 10° NNW 20:06:48 53° W 20:10:43 12° S
CZ-2C R/B 3.9 20:02:37 10° N 20:07:04 71° WNW 20:11:34 10° SSW
Meteor 1-14 Rocket 4.4 20:01:35 10° NNW 20:07:31 81° W 20:12:15 16° S
BREEZE-M DEB (TANK) 3.7 19:57:28 10° WSW 20:09:20 88° NNW 20:12:33 10° ENE
ARIANE 5 R/B 2.7 20:06:12 18° S 20:09:22 76° WSW 20:13:44 10° NNW
Terra 2.1 20:06:40 22° SE 20:09:37 55° ENE 20:14:18 10° N
ERBS 4.5 20:08:14 10° NW 20:11:02 25° N 20:13:51 10° ENE
ERS-1 Rocket 2.9 20:10:41 21° SSE 20:14:09 84° ENE 20:19:13 10° NNW
Cosmos 1470 Rocket 3.8 20:12:35 10° NNW 20:17:03 72° W 20:20:10 19° S
Cosmos 2184 Rocket 4.0 20:13:10 10° N 20:19:25 70° ENE 20:23:31 22° SSE
Cosmos 1328 Rocket 3.9 20:15:06 10° SSW 20:19:31 67° WNW 20:23:57 10° N
Cosmos 1437 2.8 20:17:58 20° SSW 20:19:46 60° WNW 20:22:36 10° N
deb Kosmos-1763 3.9 20:16:38 10° NNW 20:20:11 75° ENE 20:21:36 34° SE
X-37B 2.4 20:22:16 10° WSW 20:24:16 18° SSW 20:24:16 18° SSW
Cosmos 1777 Rocket 3.9 20:20:58 10° SSW 20:26:10 79° ESE 20:31:24 10° NNE
Cosmos 2074 Rocket 4.0 20:19:57 10° N 20:26:19 80° E 20:30:31 23° SSE
CARTOSAT-1 4.0 20:23:35 19° S 20:26:29 56° W 20:30:45 10° NNW
USA 305 2.8 20:23:01 10° WNW 20:27:18 84° SSW 20:29:31 28° ESE
Cosmos 1500 4.0 20:24:11 10° NNW 20:27:47 44° W 20:30:08 19° SSW
Cosmos 2082 Rocket 2.3 20:23:23 10° NNW 20:29:01 68° ENE 20:32:17 26° SE
COSMOS 2406 3.3 20:23:32 10° NNW 20:29:12 71° WSW 20:32:38 24° SSE
CZ-4B DEB 4.2 20:30:22 42° SSE 20:31:20 81° ENE 20:34:35 10° N
Cosmos 1933 Rocket 3.6 20:27:11 10° NNW 20:31:32 76° W 20:33:54 26° S
Meteor 1-27 Rocket 4.3 20:29:39 25° SSE 20:32:34 44° E 20:38:08 10° NNE
Nadezhda 1 Rocket 4.3 20:31:30 24° SSE 20:35:08 52° E 20:41:10 10° NNE
Meteor 2-6 Rocket 4.1 20:31:35 17° S 20:35:50 87° E 20:41:24 10° NNE
Cosmos 44 4.5 20:30:57 10° NNW 20:36:09 42° NE 20:39:58 17° ESE
Cosmos 923 Rocket 4.3 20:32:21 10° NNW 20:37:35 60° ENE 20:40:17 28° SE
Gbstr 26 Del rocket 4.3 20:36:51 10° W 20:44:34 80° N 20:51:00 10° E
USA 306 2.9 20:42:14 10° WNW 20:46:28 69° SSW 20:47:58 38° SE
Cosmos 1271 Rocket 2.7 20:46:42 34° S 20:48:22 83° E 20:52:25 10° NNE
Cosmos 1610 Rocket 4.4 20:42:27 10° N 20:48:38 76° E 20:51:58 29° SSE
Cosmos 1733 Rocket 4.2 20:50:05 10° N 20:53:55 30° ENE 20:55:14 25° ESE
Cosmos 1544 3.4 20:50:44 10° N 20:54:14 49° ENE 20:54:52 43° ESE
Meteor 1-11 Rocket 3.8 20:48:31 10° NNW 20:54:32 85° W 20:57:46 29° S
SJ 16-02 1.2 20:52:11 27° SSW 20:54:33 84° ESE 20:59:01 10° NNE
Cosmos 2278 Rocket 2.1 20:50:05 11° SSW 20:55:38 90° WNW 21:01:21 10° NNE
Resurs 01 Rocket 4.4 20:57:15 10° W 20:58:14 11° W 20:59:14 10° WNW
NOSS 3-4 (A) 3.8 20:52:19 10° NW 20:59:13 77° SW 21:03:32 28° SSE
NOSS 3-4 (C) 3.8 20:52:26 10° NW 20:59:20 77° SW 21:03:39 28° SSE
Cosmos 990 Rocket 4.5 21:00:05 34° SE 21:01:33 42° ESE 21:06:29 10° NE
H-2A R/B 3.6 20:58:24 10° NNE 21:02:37 75° WNW 21:04:38 30° SSW
Cosmos 2341 Rocket 4.3 20:57:27 10° N 21:03:46 57° ENE 21:06:51 30° SE
Cosmos 2228 Rocket 3.0 21:01:57 35° S 21:03:47 90° ESE 21:08:16 10° N
Cosmos 2369 Rocket 4.0 21:06:19 14° E 21:06:34 14° E 21:09:19 10° ENE
Cosmos 1340 Rocket 2.9 21:02:49 10° N 21:06:54 64° ENE 21:07:52 47° SE
NOSS 3-3 (A) 4.4 21:03:59 10° WSW 21:09:51 64° NW 21:16:40 10° NE
NOSS 3-3 (C) 4.4 21:04:05 10° WSW 21:09:58 64° NW 21:16:46 10° NE
Cosmos 1943 Rocket 3.2 21:11:10 27° ESE 21:11:54 27° ESE 21:16:33 10° NE
USA 307 3.1 21:08:01 10° WNW 21:12:11 52° SSW 21:12:48 47° S
ATLAS 2AS CENTAUR R/B 2.8 21:05:25 10° NW 21:12:57 86° NE 21:16:52 29° SE
Cosmos 2112 Rocket 4.0 21:11:01 10° NNW 21:16:24 80° ENE 21:18:29 38° SSE
USA 215 3.6 21:10:33 10° E 21:17:00 65° NNE 21:23:28 10° WNW
Cosmos 1536 3.0 21:14:20 10° NNW 21:18:21 63° W 21:19:22 45° SSW
CZ-4C R/B 3.7 21:12:58 10° NW 21:19:40 40° WSW 21:23:48 24° SSW
BREEZE-M R/B 3.7 21:17:26 10° W 21:18:26 23° W 21:18:26 23° W
Cosmos 2218 Rocket 4.4 21:15:22 10° N 21:21:29 51° ENE 21:24:17 31° SE
USA 308 3.3 21:21:34 10° WNW 21:25:39 43° SW 21:25:49 43° SSW
SL-24 R/B - RUBIN 2 3.9 21:20:55 10° NW 21:26:35 83° NE 21:28:29 40° SE
Cosmos 1975 3.7 21:28:15 10° N 21:31:58 36° ENE 21:32:32 34° E
Cosmos 1833 Rocket 4.3 21:32:38 10° NW 21:37:00 23° WSW 21:39:27 18° SW
Cosmos 1862 Rocket 3.8 21:36:49 46° ESE 21:37:18 48° E 21:41:28 10° NNE
Cosmos 1743 2.8 21:38:28 10° NNW 21:42:17 62° W 21:42:43 56° SW
Cosmos 2084 Rocket 3.5 21:38:54 10° NW 21:43:09 73° NE 21:44:16 48° ESE
Cosmos 1680 Rocket 3.8 21:38:58 10° NNW 21:44:11 56° WSW 21:45:47 40° SSW
Meteor 1-18 Rocket 4.5 21:45:05 40° SE 21:46:42 53° E 21:52:08 10° NNE
Cosmos 1937 Rocket 3.5 21:45:55 47° SSE 21:47:02 59° ESE 21:52:09 10° NNE
ERBS 3.1 21:44:28 10° NW 21:47:42 48° NNE 21:48:11 43° NE
Terra 3.7 21:45:33 16° SW 21:47:43 22° W 21:51:23 10° NW
SL-8 Rocket 4.0 21:42:53 10° N 21:49:15 89° E 21:51:47 39° S
Cosmos 2297 3.7 21:50:18 42° S 21:52:12 70° ESE 21:57:52 10° NNE
Cosmos 1818 3.5 21:48:50 10° NW 21:54:22 89° NE 21:56:16 43° SE
DNEPR-1 R/B 4.3 21:55:30 45° SSE 21:56:27 50° SE 22:01:16 10° NE
ALOS 2 2.5 21:59:30 59° SE 22:00:16 79° ENE 22:04:41 10° NNW
Cosmos 1707 Rocket 4.0 21:59:37 41° SW 22:00:48 56° WNW 22:05:10 10° N
Cosmos 858 Rocket 4.4 21:59:36 49° S 22:00:56 74° ESE 22:06:11 10° NNE
Spot 4 4.0 22:01:02 47° SSW 22:02:12 62° WSW 22:07:03 10° NNW
Okean 1-7 3.9 22:05:57 33° E 22:06:11 33° E 22:10:02 10° NNE
Cosmos 2082 Rocket 3.6 22:08:15 10° NW 22:12:36 23° WSW 22:14:08 21° SW
Cosmos 44 3.8 22:12:19 10° NW 22:17:33 48° WSW 22:18:22 44° SSW
Cosmos 864 Rocket 4.5 22:11:24 10° NNW 22:17:33 73° W 22:19:43 42° S
Gblst 52 Del rocket 4.3 22:12:34 10° WNW 22:19:29 81° SSW 22:23:43 21° ESE
COBE Rocket 3.9 22:19:43 53° SSE 22:20:58 90° WSW 22:26:09 10° NNW
Cosmos 1898 Rocket 4.0 22:20:54 30° SW 22:23:24 57° WNW 22:28:41 10° NNE
Cosmos 2242 Rocket 3.7 22:24:57 55° ESE 22:25:23 58° E 22:29:47 10° NNE
Cosmos 1733 Rocket 4.2 22:27:54 10° NNW 22:31:42 31° W 22:32:19 29° WSW
Gbstr 26 Del rocket 3.9 22:24:50 10° WNW 22:31:57 68° SSW 22:34:28 36° SE
SJ 16-02 4.0 22:30:57 10° W 22:33:45 16° NW 22:36:35 10° N
Meteor 1-19 Rocket 4.4 22:33:41 39° SW 22:35:34 61° WNW 22:40:57 10° N
SL-27 R/B 3.4 22:32:29 10° N 22:35:37 38° ENE 22:35:37 38° ENE
Cosmos 2181 Rocket 4.3 22:34:44 33° SW 22:37:25 58° WNW 22:43:29 10° N
Cosmos 2278 Rocket 4.3 22:36:04 10° W 22:40:31 23° NW 22:45:00 10° NNE
Okean 2 Rocket 4.5 22:38:05 10° N 22:41:59 30° ENE 22:43:24 25° ESE
Cosmos 1356 Rocket 3.8 22:38:43 10° N 22:42:56 55° ENE 22:43:38 48° ESE
Cosmos 1378 3.9 22:43:13 42° E 22:43:13 42° E 22:46:32 10° NNE
Cosmos 1908 Rocket 3.7 22:40:16 10° NNW 22:44:41 58° W 22:45:11 54° SW
Cosmos 468 4.4 22:41:49 10° NNW 22:47:09 89° ENE 22:48:34 50° SSE
Cosmos 1867 4.0 22:47:48 42° SE 22:48:28 44° ESE 22:53:38 10° NE
Cosmos 1821 Rocket 4.0 22:42:29 10° N 22:48:56 88° W 22:51:18 42° S
SAR-Lupe-2 4.1 22:45:40 10° N 22:49:09 50° WNW 22:49:14 50° WNW
Cosmos 1300 Rocket 4.4 22:45:09 10° N 22:49:22 42° ENE 22:50:27 35° ESE
Cosmos 2369 Rocket 2.1 22:48:04 49° S 22:49:38 78° ESE 22:55:18 10° NNE
Cosmos 372 Rocket 4.0 22:49:28 47° SW 22:50:55 75° WNW 22:56:02 10° NNE
Nimbus 7 Rocket 4.4 22:47:09 10° NNE 22:53:02 81° WNW 22:55:11 42° SSW
Cosmos 1934 Rocket 4.2 22:47:11 10° N 22:53:18 60° ENE 22:55:55 34° SE
SeaSat 1 2.5 22:49:24 10° NE 22:54:18 60° ESE 22:55:08 52° SSE
Cosmos 1943 Rocket 2.6 22:52:38 30° WSW 22:55:17 59° NW 23:00:51 10° NNE
Cosmos 494 Rocket 3.9 22:53:26 10° NNW 22:58:40 85° ENE 23:00:10 48° SSE
Cosmos 1461 3.0 22:58:11 59° SW 22:59:05 90° NNW 23:03:44 10° NE
USA 215 3.2 22:57:12 34° SSE 23:00:05 62° SW 23:06:35 10° WNW
Cosmos 1733 4.1 22:56:37 10° N 23:00:12 39° ENE 23:00:42 37° E
Cosmos 1125 Rocket 3.8 22:59:27 44° SE 23:00:29 51° ESE 23:05:32 10° NNE
SL-16 R/B 4.1 22:56:21 10° ESE 23:01:39 30° ENE 23:06:56 10° N
Cosmos 1805 3.7 22:58:50 10° N 23:02:40 51° ENE 23:03:05 49° E
ATLAS 2AS CENTAUR R/B 3.8 22:57:17 10° WNW 23:03:03 26° WSW 23:04:17 25° SW
Meteor 1-13 Rocket 4.2 23:03:41 47° S 23:05:18 76° E 23:10:50 10° NNE
RESURS DK-1 2.2 23:03:27 10° NW 23:07:37 73° WSW 23:07:43 72° SW
Cosmos 1975 4.5 23:05:07 10° NW 23:08:13 22° W 23:08:17 22° W
Cosmos 1766 4.0 23:06:33 10° N 23:10:23 44° ENE 23:11:06 39° ESE
EO 1 Del DPAF 3.2 23:06:50 10° NNE 23:10:32 68° E 23:10:32 68° E
Meteor 1-12 Rocket 4.3 23:05:14 10° NNW 23:11:09 74° W 23:12:58 45° S
Cosmos 2263 4.2 23:09:33 46° SSW 23:11:23 83° ESE 23:17:13 10° NNE
Meteor 2-4 Rocket 4.1 23:09:24 36° SW 23:11:31 55° WNW 23:17:04 10° N
Cosmos 1703 Rocket 4.0 23:14:30 44° WSW 23:15:15 49° WNW 23:19:33 10° N
Cosmos 1066 Rocket 4.3 23:13:32 44° S 23:15:24 72° E 23:21:04 10° NNE
ISS -2.2 23:17:26 29° E 23:17:26 29° E 23:19:15 10° ENE
Cosmos 1782 Rocket 3.9 23:11:52 10° NNW 23:16:12 49° W 23:16:38 47° WSW
Cosmos 1656 Rocket 3.5 23:17:56 48° SSW 23:19:32 84° ESE 23:25:07 10° NNE
Cosmos 2221 Rocket 4.0 23:21:43 45° SE 23:22:40 54° E 23:27:08 10° NNE
Cosmos 1400 Rocket 4.0 23:24:37 10° N 23:28:30 38° ENE 23:30:00 28° ESE
CZ-2D R/B 3.7 23:25:26 10° NE 23:29:54 25° E 23:32:27 18° SE
Nadezhda 3 Rocket 4.2 23:28:06 36° SW 23:30:36 61° WNW 23:36:47 10° N
Cosmos 1470 4.4 23:28:30 10° N 23:31:56 28° ENE 23:33:37 21° ESE
Cosmos 1833 4.5 23:27:52 10° NW 23:33:26 51° WSW 23:34:47 42° SSW
Cosmos 2227 Rocket 4.2 23:29:25 10° NNW 23:34:10 27° NE 23:38:53 10° E
Thor Agena Rocket 4.2 23:29:38 10° N 23:34:37 46° WNW 23:36:39 31° WSW
ATLAS CENTAUR R/B 1.3 23:34:54 57° ESE 23:34:54 57° ESE 23:38:27 10° NE
CZ-4 R/B 4.2 23:30:45 10° NNE 23:35:35 56° E 23:36:56 41° SSE
Okean 3 3.7 23:35:42 49° WSW 23:36:22 56° WNW 23:40:33 10° N
USA 281 3.3 23:32:05 22° SE 23:36:37 80° ENE 23:43:13 10° NNW
NOSS 2-1 (C) 4.1 23:33:04 10° NW 23:37:45 86° NE 23:44:23 10° SE
Cosmos 2297 Rocket 3.8 23:32:45 10° NNW 23:37:53 33° NE 23:42:58 10° ESE
Cosmos 1607 4.0 23:36:39 35° SW 23:39:36 89° NW 23:46:10 10° NE
Cosmos 1269 Rocket 4.0 23:35:10 10° NNW 23:40:30 81° ENE 23:42:58 33° SSE
Helios 1A 2.8 23:40:37 59° S 23:41:23 87° WSW 23:45:34 10° NNW
Cosmos 1378 Rocket 4.5 23:40:16 32° SE 23:41:28 39° E 23:45:30 10° NNE
Okean 1-7 4.4 23:42:48 25° W 23:43:47 27° WNW 23:47:29 10° N
Cosmos 2298 Rocket 4.3 23:41:55 36° SW 23:43:54 59° WNW 23:49:10 10° NNE
PSLV R/B 4.0 23:39:48 10° N 23:44:08 52° WNW 23:45:08 42° WSW
NOSS 2-1 (D) 4.0 23:39:49 10° NW 23:44:33 87° SW 23:51:03 11° SE
ADEOS II 4.3 23:41:43 10° NE 23:45:03 17° E 23:48:22 10° SE
Cosmos 44 Rocket 3.3 23:42:50 10° NW 23:48:05 78° SW 23:50:22 34° SSE
Resurs 1-4 Rocket 3.1 23:45:59 10° NNE 23:50:51 36° E 23:53:19 24° SE
COSMOS 2487 2.3 23:47:29 10° NNW 23:50:54 78° ENE 23:51:01 76° E
Cosmos 1842 3.6 23:51:18 45° SE 23:51:59 52° E 23:55:46 10° NNE
Okean 1 Rocket 3.5 23:49:38 10° N 23:54:01 57° ENE 23:55:48 32° SE
